Location: Santa Giusta
(39.8800°N, 8.6069°E)
Time: 02:14:48
(UTC+00:00)

S3M - Pass Details

Date: 02 February 2023
Orbit: 948 x 1005 km, 83.0° (Epoch: 01 April)

Event Time Altitude Azimuth Distance (km) Brightness Sun altitude
Rises 18:00:38 0° 161° (SSE) 3,712 6.9 -14.7°
Reaches altitude 10° 18:03:19 10° 154° (SSE) 2,769 6.2 -15.2°
Maximum altitude 18:09:07 38° 88° (E) 1,487 4.5 -16.3°
Drops below altitude 10° 18:14:55 10° 23° (NNE) 2,782 6.1 -17.4°
Sets 18:17:37 0° 16° (NNE) 3,732 6.8 -17.9°
